Location: Newark
(46.1292°N, 1.0086°W)
Time: 09:24:05
(UTC+00:00)

Transit 2A Rocket - All Passes

Search period start: 21 November 2019 00:00
Search period end: 01 December 2019 00:00
Orbit: 594 x 909 km, 66.7° (Epoch: 20 November)

Date Brightness Start Highest point End Pass type
(mag) Time Alt. Az. Time Alt. Az. Time Alt. Az.
21 Nov - 04:51:05 10° NNW 04:54:54 29° NE 04:58:50 10° ESE visible
21 Nov - 06:33:26 10° NW 06:37:29 37° WSW 06:41:43 10° S visible
21 Nov - 19:32:14 10° ESE 19:32:56 10° ESE 19:33:37 10° E night (unlit)
21 Nov - 21:10:04 10° SSW 21:14:48 84° ESE 21:19:16 10° NE night (unlit)
21 Nov - 22:54:53 10° W 22:57:53 17° NW 23:00:48 10° N night (unlit)
22 Nov - 04:08:57 10° N 04:12:06 19° NE 04:15:19 10° E visible
22 Nov - 05:50:42 10° NW 05:55:02 68° WSW 05:59:37 10° SSE visible
22 Nov - 20:27:47 10° S 20:32:20 47° ESE 20:36:37 10° NE night (unlit)
22 Nov - 22:11:13 10° W 22:15:03 25° NW 22:18:45 10° NNE night (unlit)
23 Nov - 03:27:07 10° N 03:29:12 13° NE 03:31:18 10° ENE visible
23 Nov - 05:08:11 10° NNW 05:12:32 68° NE 05:17:05 10° SE visible
23 Nov - 06:52:06 10° WNW 06:54:35 15° WSW 06:57:07 10° SW daylight
23 Nov - 19:45:59 10° S 19:49:57 27° ESE 19:53:44 10° NE night (unlit)
23 Nov - 21:27:58 10° WSW 21:32:20 40° NW 21:36:30 10° NNE night (unlit)
24 Nov - 04:25:48 10° NNW 04:29:56 40° NE 04:34:12 10° ESE visible
24 Nov - 06:08:37 10° WNW 06:12:17 26° WSW 06:16:06 10° SSW visible
24 Nov - 19:04:56 10° SE 19:07:40 15° ESE 19:10:19 10° ENE night (unlit)
24 Nov - 20:45:04 10° SW 20:49:44 68° NW 20:54:08 10° NNE night (unlit)
24 Nov - 22:30:53 10° WNW 22:33:04 13° NW 22:35:13 10° N night (unlit)
25 Nov - 03:43:34 10° NNW 03:47:12 25° NE 03:50:57 10° E visible
25 Nov - 05:25:42 10° NW 05:29:54 46° WSW 05:34:20 10° S visible
25 Nov - 20:02:32 10° SSW 20:07:13 70° ESE 20:11:37 10° NE night (unlit)
25 Nov - 21:46:52 10° W 21:50:09 19° NW 21:53:22 10° N night (unlit)
26 Nov - 03:01:31 10° N 03:04:22 17° NE 03:07:17 10° E visible
26 Nov - 04:43:03 10° NW 04:47:27 83° WSW 04:52:04 10° SSE visible
26 Nov - 19:20:25 10° S 19:24:46 39° ESE 19:28:54 10° NE visible
26 Nov - 21:03:21 10° WSW 21:07:22 29° NW 21:11:13 10° NNE night (unlit)
27 Nov - 02:19:53 10° N 02:21:26 12° NNE 02:22:59 10° NE night (unlit)
27 Nov - 04:00:35 10° NNW 04:04:54 56° NE 04:09:25 10° SE visible
27 Nov - 05:44:01 10° WNW 05:47:03 18° WSW 05:50:12 10° SSW visible
27 Nov - 18:38:49 10° SSE 18:42:25 22° ESE 18:45:52 10° ENE visible
27 Nov - 20:20:13 10° SW 20:24:41 47° NW 20:28:57 10° NNE visible
27 Nov - 22:07:32 10° NW 22:08:17 10° NNW 22:09:02 10° NNW night (unlit)
28 Nov - 03:18:15 10° NNW 03:22:15 34° NE 03:26:25 10° ESE visible
28 Nov - 05:00:49 10° NW 05:04:44 32° WSW 05:08:52 10° S visible
28 Nov - 17:58:15 10° SE 18:00:09 12° ESE 18:02:01 10° E visible
28 Nov - 19:37:26 10° SW 19:42:06 82° WNW 19:46:31 10° NNE visible
28 Nov - 21:22:43 10° WNW 21:25:19 15° NW 21:27:51 10° N night (unlit)
29 Nov - 02:36:05 10° N 02:39:30 22° NE 02:43:02 10° E night (unlit)
29 Nov - 04:18:00 10° NW 04:22:19 57° WSW 04:26:53 10° SSE visible
29 Nov - 18:55:03 10° SSW 18:59:37 57° ESE 19:03:56 10° NE visible
29 Nov - 20:38:53 10° W 20:42:26 22° NW 20:45:53 10° N visible
30 Nov - 01:54:06 10° N 01:56:38 15° NE 01:59:12 10° ENE night (unlit)
30 Nov - 03:35:26 10° NNW 03:39:50 81° ENE 03:44:29 10° SE visible
30 Nov - 05:19:55 10° W 05:21:48 12° WSW 05:23:42 10° SW visible
30 Nov - 18:13:05 10° S 18:17:12 32° ESE 18:21:09 10° NE visible
30 Nov - 19:55:31 10° WSW 19:59:41 34° NW 20:03:42 10° NNE visible
